N5CSU Weather Reports


time (UTC)temp
F
wind
direction
speed
knots
gust
knots
rain 1hr
in
rain 24hr
in
rain mn
in
humidity
%
barometer
mb
20260503212856 81 198 0.0 0.0 0.00 0.00 0.00 38 1017.2
20260503212355 81 172 0.0 0.0 0.00 0.00 0.00 35 1017.3
20260503211851 81 178 0.0 0.0 0.00 0.00 0.00 36 1017.2
20260503211348 81 191 0.0 0.0 0.00 0.00 0.00 36 1017.1
20260503210843 81 172 0.0 0.9 0.00 0.00 0.00 38 1017.5
20260503210341 81 166 0.9 0.9 0.00 0.00 0.00 36 1017.4
20260503205836 81 177 0.0 0.0 0.00 0.00 0.00 37 1017.7
20260503205333 80 200 0.0 0.0 0.00 0.00 0.00 37 1017.6
20260503204829 80 187 0.0 0.0 0.00 0.00 0.00 36 1017.8
20260503204327 80 208 0.0 0.0 0.00 0.00 0.00 36 1017.8
20260503203824 81 174 0.0 0.0 0.00 0.00 0.00 38 1017.9
20260503203321 81 196 0.0 0.0 0.00 0.00 0.00 35 1018.0
20260503202818 80 186 0.0 0.0 0.00 0.00 0.00 36 1018.2
20260503202316 80 191 0.0 0.0 0.00 0.00 0.00 35 1018.3
20260503201814 80 179 0.0 0.9 0.00 0.00 0.00 36 1018.3
20260503201311 81 181 0.9 1.7 0.00 0.00 0.00 35 1018.4
20260503200808 81 201 0.9 1.7 0.00 0.00 0.00 33 1018.6
20260503200304 81 191 0.0 0.9 0.00 0.00 0.00 31 1018.5
20260503195802 81 186 0.0 0.0 0.00 0.00 0.00 34 1018.6
20260503195258 81 191 0.0 0.9 0.00 0.00 0.00 34 1018.7
20260503194755 80 197 0.0 0.0 0.00 0.00 0.00 34 1018.8
20260503194251 81 168 2.6 2.6 0.00 0.00 0.00 35 1018.8
20260503193747 81 239 0.0 0.0 0.00 0.00 0.00 38 1018.8
20260503193243 81 188 0.0 0.0 0.00 0.00 0.00 35 1019.1
20260503192739 81 284 0.0 0.0 0.00 0.00 0.00 37 1018.9
20260503192234 80 203 0.0 0.0 0.00 0.00 0.00 37 1019.1
20260503191731 80 188 0.0 0.0 0.00 0.00 0.00 40 1019.2
20260503191228 80 203 0.0 0.0 0.00 0.00 0.00 39 1019.2
20260503190725 80 176 0.0 0.0 0.00 0.00 0.00 40 1019.4
20260503190221 80 218 0.0 0.0 0.00 0.00 0.00 36 1019.5
20260503185719 80 189 0.0 0.0 0.00 0.00 0.00 39 1019.4
20260503185214 80 174 0.0 0.9 0.00 0.00 0.00 39 1019.5
20260503184709 80 209 0.0 0.0 0.00 0.00 0.00 42 1019.6
20260503184206 80 198 0.0 0.0 0.00 0.00 0.00 41 1019.6
20260503183702 79 191 0.9 0.9 0.00 0.00 0.00 37 1019.7
20260503183159 80 330 0.9 0.9 0.00 0.00 0.00 40 1019.7
20260503182657 80 186 0.0 0.0 0.00 0.00 0.00 41 1020.0
20260503182155 79 166 1.7 1.7 0.00 0.00 0.00 38 1020.0
20260503181652 79 226 0.0 0.9 0.00 0.00 0.00 43 1020.3
20260503181149 79 202 0.0 0.0 0.00 0.00 0.00 40 1020.2
20260503180646 79 175 0.0 0.0 0.00 0.00 0.00 43 1020.3
20260503180144 79 173 0.9 1.7 0.00 0.00 0.00 42 1020.3
20260503175640 79 209 0.0 0.0 0.00 0.00 0.00 42 1020.5
20260503175138 78 167 0.9 0.9 0.00 0.00 0.00 43 1020.6
20260503174634 78 192 0.0 0.0 0.00 0.00 0.00 43 1020.7
20260503174131 78 207 0.0 0.0 0.00 0.00 0.00 43 1020.7
20260503173626 78 166 0.9 1.7 0.00 0.00 0.00 43 1020.9
20260503173123 78 169 0.9 1.7 0.00 0.00 0.00 43 1021.0
20260503172620 78 241 0.9 0.9 0.00 0.00 0.00 47 1021.1
20260503172118 78 201 0.9 0.9 0.00 0.00 0.00 46 1021.3
20260503171614 78 205 0.0 0.0 0.00 0.00 0.00 43 1021.1
20260503171111 78 186 0.0 0.9 0.00 0.00 0.00 46 1021.1
20260503170608 78 194 0.0 0.0 0.00 0.00 0.00 46 1021.2
20260503170105 77 186 0.9 0.9 0.00 0.00 0.00 48 1021.4
20260503151000 72 215 0.0 0.0 0.00 0.00 0.00 52 1021.8
20260503150456 71 199 0.0 0.0 0.00 0.00 0.00 55 1021.7
20260503131343 55 177 0.0 0.0 0.00 0.00 0.00 95 1021.6
20260503130841 54 177 0.0 0.0 0.00 0.00 0.00 95 1021.4
20260503130338 53 177 0.0 0.0 0.00 0.00 0.00 95 1021.4
20260503110732 50 179 0.0 0.0 0.00 0.00 0.00 93 1020.7
20260503110229 50 179 0.0 0.0 0.00 0.00 0.00 93 1020.6
20260503100155 51 179 0.0 0.0 0.00 0.00 0.00 93 1020.6
20260503090115 51 172 0.0 0.0 0.00 0.00 0.00 91 1020.4
20260503081550 52 172 0.0 0.0 0.00 0.00 0.00 89 1020.2
20260503081048 52 172 0.0 0.0 0.00 0.00 0.00 89 1020.2
20260503080544 53 172 0.0 0.0 0.00 0.00 0.00 89 1020.4
20260503072513 54 171 0.0 0.0 0.00 0.00 0.00 86 1020.5
20260503072009 54 171 0.0 0.0 0.00 0.00 0.00 86 1020.4
20260503071506 54 171 0.0 0.0 0.00 0.00 0.00 86 1020.6
20260503071003 54 171 0.0 0.0 0.00 0.00 0.00 85 1020.7
20260503070459 54 171 0.0 0.0 0.00 0.00 0.00 85 1020.8
20260503054912 56 171 0.0 0.0 0.00 0.00 0.00 79 1020.6
20260503054408 56 171 0.0 0.0 0.00 0.00 0.00 79 1020.6
20260503053906 57 171 0.0 0.0 0.00 0.00 0.00 78 1020.2
20260503053404 57 171 0.0 0.0 0.00 0.00 0.00 77 1020.3
20260503052859 57 171 0.0 0.0 0.00 0.00 0.00 77 1020.3
20260503052357 57 171 0.0 0.0 0.00 0.00 0.00 76 1020.4
20260503051853 58 171 0.0 0.0 0.00 0.00 0.00 76 1020.4
20260503051349 58 171 0.0 0.0 0.00 0.00 0.00 75 1020.3
20260503050846 58 171 0.0 0.0 0.00 0.00 0.00 74 1020.2
20260503050343 59 171 0.0 0.0 0.00 0.00 0.00 74 1020.4
20260503045840 59 171 0.0 0.0 0.00 0.00 0.00 73 1020.2
20260503045338 59 171 0.0 0.0 0.00 0.00 0.00 72 1020.1
20260503044834 60 171 0.0 0.0 0.00 0.00 0.00 71 1020.3
20260503044331 60 171 0.0 0.0 0.00 0.00 0.00 69 1020.2
20260503043828 60 171 0.0 0.0 0.00 0.00 0.00 68 1020.2
20260503043325 60 171 0.0 0.0 0.00 0.00 0.00 68 1020.2
20260503042821 60 171 0.0 0.0 0.00 0.00 0.00 69 1020.3
20260503042318 60 171 0.0 0.0 0.00 0.00 0.00 67 1020.3
20260503041814 60 167 0.0 0.0 0.00 0.00 0.00 69 1020.1
20260503041312 60 167 0.0 0.0 0.00 0.00 0.00 69 1020.3
20260503040809 60 166 0.0 0.0 0.00 0.00 0.00 70 1020.3
20260503040307 60 167 0.0 0.0 0.00 0.00 0.00 70 1020.3
20260503035803 60 166 0.0 0.0 0.00 0.00 0.00 69 1020.5
20260503035301 60 164 0.0 0.0 0.00 0.00 0.00 70 1020.1
20260503034758 60 163 0.0 0.0 0.00 0.00 0.00 69 1020.1
20260503034255 60 178 0.0 0.0 0.00 0.00 0.00 71 1020.1
20260503033752 60 178 0.0 0.0 0.00 0.00 0.00 71 1020.0
20260503033250 59 185 0.0 0.0 0.00 0.00 0.00 73 1020.0
20260503032748 59 185 0.0 0.0 0.00 0.00 0.00 73 1020.1
20260503032246 59 185 0.0 0.0 0.00 0.00 0.00 72 1020.1
20260503031743 59 185 0.0 0.0 0.00 0.00 0.00 73 1020.0
20260503031241 59 185 0.0 0.0 0.00 0.00 0.00 74 1020.1
20260503030737 59 185 0.0 0.0 0.00 0.00 0.00 74 1020.1
20260503030234 59 185 0.0 0.0 0.00 0.00 0.00 74 1019.9
20260503025730 59 185 0.0 0.0 0.00 0.00 0.00 74 1019.9
20260503025228 59 185 0.0 0.0 0.00 0.00 0.00 74 1019.9
20260503024724 60 185 0.0 0.0 0.00 0.00 0.00 74 1019.7
20260503024222 60 185 0.0 0.0 0.00 0.00 0.00 74 1019.9
20260503023719 60 185 0.0 0.0 0.00 0.00 0.00 74 1019.8
20260503023215 60 185 0.0 0.0 0.00 0.00 0.00 73 1019.7
20260503022711 61 185 0.0 0.0 0.00 0.00 0.00 72 1019.8
20260503022211 61 185 0.0 0.0 0.00 0.00 0.00 72 1019.6
20260503021708 61 185 0.0 0.0 0.00 0.00 0.00 72 1019.6
20260503021204 61 185 0.0 0.0 0.00 0.00 0.00 71 1019.6
20260503020702 61 183 0.0 0.0 0.00 0.00 0.00 71 1019.4
20260503020159 62 183 0.0 0.0 0.00 0.00 0.00 70 1019.5
20260503015656 62 183 0.0 0.0 0.00 0.00 0.00 69 1019.4
20260503015153 63 183 0.0 0.0 0.00 0.00 0.00 68 1019.3
20260503014649 63 182 0.0 0.0 0.00 0.00 0.00 68 1019.5
20260503014147 63 183 0.0 0.0 0.00 0.00 0.00 67 1019.2
20260503013644 64 183 0.0 0.0 0.00 0.00 0.00 65 1019.2
20260503013142 64 183 0.0 0.0 0.00 0.00 0.00 63 1019.2
20260503012638 65 183 0.0 0.0 0.00 0.00 0.00 61 1019.1
20260503012135 65 183 0.0 0.0 0.00 0.00 0.00 61 1019.1
20260503011632 66 183 0.0 0.0 0.00 0.00 0.00 59 1019.1
20260503011129 66 183 0.0 0.0 0.00 0.00 0.00 59 1019.1
20260503010625 67 180 0.0 0.0 0.00 0.00 0.00 57 1018.9
20260503010123 67 180 0.0 0.0 0.00 0.00 0.00 56 1019.0
20260503005620 68 181 0.0 0.0 0.00 0.00 0.00 54 1019.0
20260503005117 68 181 0.0 0.0 0.00 0.00 0.00 52 1019.0
20260503004613 69 180 0.0 0.0 0.00 0.00 0.00 51 1018.8
20260503004112 70 180 0.0 0.0 0.00 0.00 0.00 50 1019.1
20260503003608 70 180 0.0 0.0 0.00 0.00 0.00 49 1018.8
20260503003105 70 180 0.0 0.0 0.00 0.00 0.00 48 1018.8
20260503002602 71 180 0.0 0.0 0.00 0.00 0.00 47 1018.9
20260503002059 71 180 0.0 0.0 0.00 0.00 0.00 47 1018.7
20260503001555 71 181 0.0 0.0 0.00 0.00 0.00 47 1018.7
20260503001052 72 178 0.0 0.0 0.00 0.00 0.00 43 1018.9
20260503000550 72 178 0.0 0.0 0.00 0.00 0.00 43 1018.7
20260503000047 73 178 0.0 0.0 0.00 0.00 0.00 41 1018.8
20260502235543 73 178 0.0 0.0 0.00 0.00 0.00 39 1018.9
20260502235041 73 171 0.0 0.0 0.00 0.00 0.00 36 1018.8
20260502234537 73 179 0.0 0.0 0.00 0.00 0.00 38 1019.1
20260502234035 74 183 0.0 0.0 0.00 0.00 0.00 38 1019.0
20260502233530 74 180 0.0 0.0 0.00 0.00 0.00 39 1019.1
20260502233027 74 185 0.0 0.0 0.00 0.00 0.00 38 1019.1
20260502232523 74 181 0.0 0.0 0.00 0.00 0.00 37 1018.8
20260502232021 74 187 0.0 0.0 0.00 0.00 0.00 39 1019.0
20260502231517 74 177 0.0 0.0 0.00 0.00 0.00 38 1019.0
20260502231015 75 170 0.0 0.0 0.00 0.00 0.00 34 1019.1
20260502230514 75 183 0.0 0.0 0.00 0.00 0.00 36 1019.1
20260502230012 75 181 0.0 0.0 0.00 0.00 0.00 35 1019.1
20260502225512 75 182 0.0 0.0 0.00 0.00 0.00 38 1018.9
20260502225009 75 176 0.0 0.0 0.00 0.00 0.00 35 1019.2
20260502224505 75 149 0.0 0.0 0.00 0.00 0.00 37 1019.1
20260502224002 75 186 0.0 0.0 0.00 0.00 0.00 35 1019.0
20260502223500 75 175 0.0 0.0 0.00 0.00 0.00 35 1019.2
20260502222958 75 165 0.0 0.0 0.00 0.00 0.00 40 1019.2
20260502222455 75 175 0.0 0.0 0.00 0.00 0.00 35 1019.3
20260502221951 75 170 0.0 0.0 0.00 0.00 0.00 36 1019.2
20260502221447 75 189 0.0 0.0 0.00 0.00 0.00 38 1019.3
20260502220944 75 171 0.0 0.0 0.00 0.00 0.00 34 1019.3
20260502220440 75 175 0.9 0.9 0.00 0.00 0.00 36 1019.1
20260502215937 75 190 0.0 0.0 0.00 0.00 0.00 35 1019.3
20260502215434 75 144 0.9 0.9 0.00 0.00 0.00 34 1019.3
20260502214931 75 156 0.0 0.0 0.00 0.00 0.00 33 1019.5
20260502214428 75 190 0.0 0.0 0.00 0.00 0.00 37 1019.4
20260502213925 75 185 0.0 0.0 0.00 0.00 0.00 36 1019.4
20260502213422 75 183 0.0 0.0 0.00 0.00 0.00 39 1019.6